{"data":{"norad_id":65049,"intl_designator":"2025-162G","name":"HULIANWANG DIGUI-46","alt_names":[],"object_type":"PAYLOAD","status":"ACTIVE","operator":null,"country":"PRC","launch_date":"2025-07-30","launch_site_code":"WSC","launch_vehicle":null,"mission":null,"orbit_class":"UNKNOWN","rcs_meters":null,"size_class":null,"mass_kg":null,"dimensions":null,"purposes":[],"wikipedia_slug":null,"has_3d_model":false,"image_url":null,"decayed_at":null,"tle_current":{"epoch":"2026-09-21T13:42:25.427232Z","epoch_age_seconds":75696,"freshness":"FRESH","line1":"1 65049U 25162G   26264.57112763 -.00000077  00000+0  10104-3 0  9995","line2":"2 65049  50.0058 280.0068 0000763 290.5557  69.5234 13.29331116 56186","mean_motion":13.29331116,"eccentricity":7.63e-5,"inclination_deg":50.0058,"raan_deg":280.0068,"arg_perigee_deg":290.5557,"mean_anomaly_deg":69.5234,"bstar":0.00010104,"rev_number":5618,"period_min":108.32515561157,"perigee_km":1148.7129161982,"apogee_km":1149.86160114,"semimajor_km":7527.4242586691,"source":"CELESTRAK","updated_at":"2026-09-22T09:00:30.091442Z"}}}